Location: Karcze
(52.0945°N, 22.4786°E)
Time: 23:10:30
(UTC+00:00)

Transit 4A - Pass Details

Date: 02 August 2021
Orbit: 871 x 974 km, 66.8° (Epoch: 18 September)

Event Time Altitude Azimuth Distance (km) Brightness Sun altitude
Exits shadow 22:55:53 28° 229° (SW) 1,605 8.7 -20.3°
Maximum altitude 22:59:09 76° 310° (NW) 903 7.8 -20.2°
Drops below altitude 10° 23:05:00 10° 37° (NE) 2,529 11.0 -20.1°
Sets 23:07:30 0° 39° (NE) 3,473 11.9 -20.1°
